Location: St. Andrews
(45.0670°N, 67.0330°W)
Time: 11:18:31
(UTC-03:00)

Amateur Radio Satellites - All Passes

Search period start: 29 August 2016 10:48
Search period end: 30 August 2016 10:48
Location: St. Andrews, 45.0670°N, 67.0330°W

Satellite Date Start Highest point End Downlink Frequencies (MHz)
Time Altitude Azimuth
CUTE 1.7 + AOD 2 29 Aug 10:49:13 10:52:01 17° 296° (WNW) 10:54:49 437.475
HO-68 29 Aug 10:53:06 10:59:37 39° 298° (WNW) 11:06:06 435.675
ANTELSAT 29 Aug 10:53:35 10:58:11 88° 71° (ENE) 11:02:42 437.575/2403.000
COMPASS 1 29 Aug 10:53:51 10:57:25 28° 292° (WNW) 11:00:59 437.405
Cosmos 2504 29 Aug 10:55:32 10:59:12 13° 304° (NW) 11:02:47 435.465 / 435.565
RS-15 29 Aug 10:58:55 11:11:22 87° 237° (WSW) 11:23:35 29.354- 29.394
DUCHIFAT 1 29 Aug 11:06:46 11:09:37 18° 63° (ENE) 11:12:29 145.980
HUMSAT D 29 Aug 11:09:01 11:12:35 29° 96° (E) 11:16:10 437.325/437.525
AIST 1 29 Aug 11:10:03 11:13:23 21° 290° (WNW) 11:16:43
QB50P2 29 Aug 11:11:21 11:14:45 23° 66° (ENE) 11:18:08 145.880/145.840
POLYITAN 1 29 Aug 11:13:51 11:17:15 23° 66° (ENE) 11:20:39 437.675
BEESAT 2 29 Aug 11:15:33 11:19:28 59° 309° (NW) 11:23:25 435.950
NANOSAT C BR1 29 Aug 11:20:40 11:24:11 25° 67° (ENE) 11:27:42 145.865
TIGRISAT 29 Aug 11:24:16 11:28:42 48° 261° (W) 11:33:04 435.000
BEESAT 3 29 Aug 11:31:00 11:34:20 26° 317° (NW) 11:37:42 437.485
JAS-2 29 Aug 11:32:09 11:36:13 23° 59° (ENE) 11:40:31 435.910
Oscar 11 29 Aug 11:41:38 11:45:19 28° 293° (WNW) 11:49:00 145.826/435.025
ISS 29 Aug 11:50:45 11:53:35 26° 354° (N) 11:56:25 145.825
FUNcube-1 29 Aug 11:51:47 11:55:04 23° 294° (WNW) 11:58:19 145.935
PCSat 29 Aug 11:52:47 11:57:42 36° 112° (ESE) 12:02:38 145.827
BUGSAT 1 29 Aug 11:54:00 11:57:25 24° 66° (ENE) 12:00:51 437.445
UNISAT 6 29 Aug 11:54:29 11:58:09 23° 266° (W) 12:01:47 437.425
Cosmos 2499 29 Aug 11:56:45 12:03:26 30° 85° (E) 12:09:45 435.465 / 435.565
DANDE 29 Aug 11:56:55 12:02:21 77° 262° (W) 12:09:30 436.750
GONETS M04 29 Aug 12:02:45 12:10:52 44° 87° (E) 12:19:01
QB50P1 29 Aug 12:04:53 12:09:08 78° 77° (ENE) 12:13:26 145.935-145.965
AIST 2 29 Aug 12:05:05 12:08:10 21° 113° (ESE) 12:11:18 435.215
UWE-3 29 Aug 12:05:20 12:06:46 12° 300° (WNW) 12:08:11 435.000/436.395/437.385
DELFI C3 29 Aug 12:08:07 12:11:36 29° 291° (WNW) 12:15:06 145.870
POPSAT HIP 1 29 Aug 12:15:04 12:19:21 84° 257° (WSW) 12:23:39 437.405
ZACube-1 29 Aug 12:15:20 12:17:21 13° 299° (WNW) 12:19:23 437.345
AO-85 29 Aug 12:15:25 12:16:28 11° 24° (NNE) 12:17:30 145.980
ESTCUBE 1 29 Aug 12:17:34 12:21:30 28° 95° (E) 12:25:24 437.505/2401.250
AISAT 29 Aug 12:19:17 12:22:09 17° 91° (E) 12:24:59 437.250
CUSAT 1 29 Aug 12:26:47 12:31:56 24° 272° (W) 12:37:44 437.405
50 SAT 29 Aug 12:28:29 12:30:54 17° 93° (E) 12:33:19 437.505
AUBIESAT-1 29 Aug 12:34:55 12:38:42 37° 102° (ESE) 12:42:10 437.475
DUCHIFAT 1 29 Aug 12:40:50 12:44:58 49° 260° (W) 12:49:06 145.980
M-CUBED/EXP-1 PRIME 29 Aug 12:42:03 12:46:08 56° 105° (ESE) 12:49:51 437.505
HUMSAT D 29 Aug 12:44:45 12:48:08 26° 293° (WNW) 12:51:32 437.325/437.525
QB50P2 29 Aug 12:46:25 12:50:22 36° 263° (W) 12:54:20 145.880/145.840
POLYITAN 1 29 Aug 12:48:57 12:52:53 35° 263° (W) 12:56:50 437.675
NANOSAT C BR1 29 Aug 12:55:58 12:59:48 32° 264° (W) 13:03:38 145.865
BEESAT 2 29 Aug 12:56:47 12:58:08 11° 329° (NNW) 12:59:28 435.950
Gurwin Techsat 1B 29 Aug 12:59:54 13:02:38 14° 56° (ENE) 13:05:24 435.225
CUBEBUG 1 29 Aug 13:02:39 13:07:01 53° 100° (E) 13:11:19 437.445
VELOX 1 29 Aug 13:05:22 13:09:41 46° 99° (E) 13:13:57 145.980
Oscar 19 29 Aug 13:11:56 13:16:32 34° 66° (ENE) 13:21:11 437.125/150
SPROUT 29 Aug 13:12:04 13:15:47 28° 95° (E) 13:19:29 437.525
RS-15 29 Aug 13:12:55 13:22:10 26° 260° (W) 13:31:20 29.354- 29.394
JAS-2 29 Aug 13:15:47 13:20:52 54° 261° (W) 13:26:24 435.910
DX 1 29 Aug 13:16:32 13:20:42 40° 99° (E) 13:24:49 434.975-435.025
ISS 29 Aug 13:27:39 13:30:40 32° 14° (NNE) 13:33:41 145.825
BUGSAT 1 29 Aug 13:28:45 13:32:38 34° 263° (W) 13:36:31 437.445
PCSat 29 Aug 13:36:01 13:41:05 39° 311° (NW) 13:46:09 145.827
DANDE 29 Aug 13:42:24 13:44:43 12° 274° (W) 13:47:14 436.750
AIST 2 29 Aug 13:42:26 13:46:23 44° 311° (NW) 13:50:22 435.215
QB50P1 29 Aug 13:44:41 13:45:27 10° 272° (W) 13:46:13 145.935-145.965
Cosmos 2499 29 Aug 13:48:14 13:56:09 58° 283° (WNW) 14:03:32 435.465 / 435.565
O/OREOS (USA 219) 29 Aug 13:50:26 13:54:16 29° 104° (ESE) 13:58:10 437.305
UKube-1 29 Aug 13:53:20 13:57:42 78° 103° (ESE) 14:02:02 .
AO-85 29 Aug 13:53:59 13:58:10 43° 47° (NE) 14:02:02 145.980
ESTCUBE 1 29 Aug 13:54:16 13:58:17 32° 292° (WNW) 14:02:19 437.505/2401.250
AISAT 29 Aug 13:54:35 13:58:56 53° 288° (WNW) 14:03:16 437.250
GONETS M04 29 Aug 13:59:22 14:07:39 45° 288° (WNW) 14:16:04
50 SAT 29 Aug 14:01:15 14:04:36 35° 289° (WNW) 14:07:57 437.505
AO-7 29 Aug 14:05:07 14:10:59 22° 47° (NE) 14:16:50 29.400- 29.500
AUBIESAT-1 29 Aug 14:09:51 14:12:54 21° 302° (WNW) 14:15:48 437.475
M-CUBED/EXP-1 PRIME 29 Aug 14:17:39 14:20:09 16° 305° (NW) 14:22:32 437.505
ITAMSAT 1 29 Aug 14:30:35 14:34:52 27° 63° (ENE) 14:39:10 435.822/435.867
Gurwin Techsat 1B 29 Aug 14:36:29 14:41:49 88° 75° (ENE) 14:47:11 435.225
CUBEBUG 1 29 Aug 14:39:57 14:42:53 18° 298° (WNW) 14:45:49 437.445
VELOX 1 29 Aug 14:42:33 14:45:50 20° 297° (WNW) 14:49:06 145.980
SPROUT 29 Aug 14:48:00 14:51:41 28° 293° (WNW) 14:55:20 437.525
Oscar 19 29 Aug 14:51:10 14:55:49 34° 264° (W) 15:00:32 437.125/150
DX 1 29 Aug 14:53:15 14:56:39 22° 296° (WNW) 15:00:01 434.975-435.025
ITUPSAT 1 29 Aug 14:55:03 14:58:04 16° 91° (E) 15:01:04 437.325
TISAT 1 29 Aug 14:59:37 15:03:51 90° 234° (SW) 15:08:02 437.305
ISS 29 Aug 15:04:04 15:07:20 66° 214° (SSW) 15:10:36 145.825
PCSat 29 Aug 15:24:34 15:26:04 11° 334° (NNW) 15:27:36 145.827
SWISSCUBE 29 Aug 15:26:02 15:30:27 36° 97° (E) 15:34:50 437.505
O/OREOS (USA 219) 29 Aug 15:29:32 15:33:36 32° 303° (WNW) 15:37:42 437.305
UKube-1 29 Aug 15:31:17 15:33:08 13° 301° (WNW) 15:34:59 .
AO-85 29 Aug 15:35:05 15:38:16 21° 248° (WSW) 15:41:18 145.980
BEESAT 29 Aug 15:42:50 15:47:26 48° 99° (E) 15:52:02 436.000
Cosmos 2499 29 Aug 15:48:46 15:51:01 11° 306° (NW) 15:53:13 435.465 / 435.565
AO-7 29 Aug 15:54:11 16:02:32 79° 68° (ENE) 16:10:55 29.400- 29.500
YUBILEINY 29 Aug 15:59:27 16:04:27 16° 54° (NE) 16:09:24 435.215
ITAMSAT 1 29 Aug 16:09:12 16:14:07 43° 261° (W) 16:19:05 435.822/435.867
Gurwin Techsat 1B 29 Aug 16:20:11 16:22:28 13° 273° (W) 16:24:47 435.225
ITUPSAT 1 29 Aug 16:31:35 16:36:18 60° 288° (WNW) 16:40:59 437.325
TISAT 1 29 Aug 16:38:13 16:38:48 10° 302° (WNW) 16:39:23 437.305
BRITE-PL 29 Aug 16:51:16 16:54:14 16° 57° (ENE) 16:57:18 437.365/2234.400
KKS-1 29 Aug 16:55:58 16:59:59 31° 96° (E) 17:03:56 437.445
SWISSCUBE 29 Aug 17:04:06 17:08:07 28° 295° (WNW) 17:12:07 437.505
Cubesat XI-IV 29 Aug 17:15:39 17:18:23 14° 56° (NE) 17:21:06 437.490
MOZHAYETS 4 29 Aug 17:15:51 17:20:26 68° 102° (ESE) 17:25:00
HORYU 2 29 Aug 17:17:45 17:22:06 54° 72° (ENE) 17:26:27 437.375
NOAA 15 29 Aug 17:20:22 17:24:01 19° 59° (ENE) 17:27:40 137.62
BEESAT 29 Aug 17:21:18 17:24:55 22° 297° (WNW) 17:28:31 436.000
CUTE-I 29 Aug 17:26:02 17:29:26 17° 58° (ENE) 17:32:49 437.470
STARS 29 Aug 17:26:21 17:30:19 32° 97° (E) 17:34:15 437.465
Cosmos 2491 29 Aug 17:40:20 17:47:17 28° 81° (E) 17:54:15 435.465 / 435.565
AO-7 29 Aug 17:49:40 17:56:08 24° 268° (W) 18:02:38 29.400- 29.500
DOVE 4 29 Aug 17:51:59 17:54:30 14° 57° (ENE) 17:57:02 437.250
GOMX 1 29 Aug 17:53:24 17:57:42 27° 64° (ENE) 18:02:11 467.674
YUBILEINY 29 Aug 17:54:25 18:03:12 69° 79° (ENE) 18:11:52 435.215
BEESAT 2 29 Aug 17:54:27 17:57:34 21° 41° (NE) 18:00:39 435.950
BEESAT 3 29 Aug 18:08:02 18:11:51 43° 49° (NE) 18:15:38 437.485
LilacSat-2 29 Aug 18:11:27 18:14:47 29° 69° (ENE) 18:18:07 437.200
NOAA 18 29 Aug 18:21:08 18:26:23 46° 68° (ENE) 18:31:38 137.9125
BRITE-PL 29 Aug 18:26:56 18:31:53 83° 257° (WSW) 18:37:17 437.365/2234.400
KKS-1 29 Aug 18:32:39 18:36:28 28° 294° (WNW) 18:40:15 437.445
CUBESAT XI-V 29 Aug 18:41:21 18:46:04 69° 102° (ESE) 18:50:46 437.345
Cosmos 2504 29 Aug 18:46:08 18:53:11 52° 75° (ENE) 19:00:08 435.465 / 435.565
Cubesat XI-IV 29 Aug 18:52:19 18:57:40 87° 74° (ENE) 19:03:02 437.490
MOZHAYETS 4 29 Aug 18:54:28 18:57:04 15° 299° (WNW) 18:59:40
HORYU 2 29 Aug 18:56:13 18:58:59 16° 269° (W) 19:01:46 437.375
PCSat 29 Aug 18:56:19 18:58:38 13° 29° (NNE) 19:00:58 145.827
NOAA 15 29 Aug 18:58:02 19:03:16 67° 258° (WSW) 19:08:33 137.62
STARS 29 Aug 19:02:52 19:06:34 27° 294° (WNW) 19:10:14 437.465
CUTE-I 29 Aug 19:03:32 19:08:52 76° 257° (WSW) 19:14:13 437.470
DOVE 4 29 Aug 19:26:06 19:31:19 83° 75° (ENE) 19:36:41 437.250
GOMX 1 29 Aug 19:30:31 19:35:29 46° 263° (W) 19:40:43 467.674
BEESAT 2 29 Aug 19:31:45 19:35:39 52° 240° (WSW) 19:39:32 435.950
Cosmos 2491 29 Aug 19:34:39 19:43:20 70° 282° (WNW) 19:52:07 435.465 / 435.565
HO-68 29 Aug 19:35:43 19:42:24 43° 63° (ENE) 19:49:06 435.675
SEEDS 29 Aug 19:36:54 19:39:27 16° 63° (ENE) 19:42:01 437.485
AIST 1 29 Aug 19:37:46 19:39:51 13° 66° (ENE) 19:41:55
LilacSat-2 29 Aug 19:46:04 19:49:06 22° 266° (W) 19:52:09 437.200
BEESAT 3 29 Aug 19:46:19 19:49:15 20° 247° (WSW) 19:52:10 437.485
CINEMA 3 29 Aug 19:51:52 19:56:38 46° 71° (ENE) 20:01:22 145.822/145.860
YUBILEINY 29 Aug 19:52:13 19:59:13 28° 279° (W) 20:06:12 435.215
CUBEBUG 2 29 Aug 19:57:32 20:00:26 17° 62° (ENE) 20:03:16 437.445
CANX-2 29 Aug 20:01:08 20:05:07 44° 72° (ENE) 20:09:08 2200.000
AAUSAT CUBESAT 2 29 Aug 20:01:48 20:04:22 16° 63° (ENE) 20:06:56 437.432
NOAA 18 29 Aug 20:02:32 20:07:13 28° 265° (W) 20:11:54 137.9125
CUTE 1.7 + AOD 2 29 Aug 20:06:48 20:10:47 44° 71° (ENE) 20:14:48 437.475
BRITE-PL 29 Aug 20:10:17 20:11:20 11° 277° (W) 20:12:24 437.365/2234.400
COMPASS 1 29 Aug 20:11:05 20:14:27 25° 67° (ENE) 20:17:51 437.405
CUBESAT XI-V 29 Aug 20:20:08 20:22:54 16° 299° (WNW) 20:25:40 437.345
AIST 2 29 Aug 20:23:34 20:27:16 29° 44° (NE) 20:30:58 435.215
Cubesat XI-IV 29 Aug 20:36:00 20:38:26 13° 272° (W) 20:40:51 437.490
PCSat 29 Aug 20:38:11 20:43:26 47° 51° (NE) 20:48:39 145.827
Cosmos 2504 29 Aug 20:40:07 20:46:11 30° 276° (W) 20:52:11 435.465 / 435.565
STRAND 1 29 Aug 20:52:53 20:58:00 75° 103° (ESE) 21:03:07 437.568
Oscar 11 29 Aug 21:02:06 21:05:49 29° 68° (ENE) 21:09:34 145.826/435.025
DOVE 4 29 Aug 21:06:57 21:09:39 14° 273° (W) 21:12:23 437.250
SEEDS 29 Aug 21:10:42 21:14:46 52° 260° (W) 21:18:51 437.485
FUNcube-1 29 Aug 21:12:17 21:16:17 35° 70° (ENE) 21:20:13 145.935
AIST 1 29 Aug 21:13:34 21:17:58 67° 264° (W) 21:22:18
DELFI C3 29 Aug 21:21:41 21:24:30 19° 65° (ENE) 21:27:19 145.870
HO-68 29 Aug 21:23:24 21:30:07 42° 262° (W) 21:36:54 435.675
UWE-3 29 Aug 21:24:56 21:29:29 78° 77° (ENE) 21:33:56 435.000/436.395/437.385
CINEMA 3 29 Aug 21:29:58 21:33:56 23° 267° (W) 21:37:53 145.822/145.860
CUBEBUG 2 29 Aug 21:31:59 21:36:36 62° 259° (W) 21:41:07 437.445
ZACube-1 29 Aug 21:34:36 21:38:59 64° 75° (ENE) 21:43:18 437.345
AAUSAT CUBESAT 2 29 Aug 21:35:29 21:39:28 50° 260° (W) 21:43:30 437.432
Cosmos 2491 29 Aug 21:37:03 21:42:06 16° 306° (NW) 21:47:09 435.465 / 435.565
CANX-2 29 Aug 21:38:22 21:41:12 18° 268° (W) 21:44:04 2200.000
CUTE 1.7 + AOD 2 29 Aug 21:44:01 21:46:51 18° 268° (W) 21:49:43 437.475
COMPASS 1 29 Aug 21:46:14 21:49:53 30° 264° (W) 21:53:35 437.405
AUBIESAT-1 29 Aug 21:51:09 21:52:18 11° 52° (NE) 21:53:28 437.475
M-CUBED/EXP-1 PRIME 29 Aug 21:57:07 21:59:47 15° 54° (NE) 22:02:25 437.505
AIST 2 29 Aug 22:01:58 22:05:48 35° 243° (WSW) 22:09:37 435.215
HUMSAT D 29 Aug 22:02:13 22:05:42 27° 68° (ENE) 22:09:10 437.325/437.525
GONETS M04 29 Aug 22:10:23 22:17:23 25° 62° (ENE) 22:24:20
PRISM 29 Aug 22:12:43 22:16:52 60° 102° (ESE) 22:21:00 437.425
O/OREOS (USA 219) 29 Aug 22:20:08 22:22:02 12° 45° (NE) 22:23:56 437.305
PCSat 29 Aug 22:22:00 22:26:37 29° 250° (WSW) 22:31:13 145.827
STRAND 1 29 Aug 22:33:28 22:36:35 17° 301° (WNW) 22:39:42 437.568
Oscar 11 29 Aug 22:38:13 22:41:55 28° 265° (W) 22:45:38 145.826/435.025
ANTELSAT 29 Aug 22:44:42 22:47:09 15° 90° (E) 22:49:36 437.575/2403.000
FUNcube-1 29 Aug 22:49:01 22:52:36 24° 266° (W) 22:56:08 145.935
DELFI C3 29 Aug 22:55:25 22:59:05 37° 262° (W) 23:02:48 145.870
UWE-3 29 Aug 23:05:00 23:06:26 11° 272° (W) 23:07:52 435.000/436.395/437.385
50 SAT 29 Aug 23:09:14 23:10:14 11° 62° (ENE) 23:11:15 437.505
ZACube-1 29 Aug 23:13:30 23:15:40 13° 270° (W) 23:17:49 437.345
TIGRISAT 29 Aug 23:14:00 23:17:44 28° 96° (E) 23:21:23 435.000
UKube-1 29 Aug 23:17:57 23:18:25 10° 57° (ENE) 23:18:54 .
AISAT 29 Aug 23:18:28 23:21:44 20° 63° (ENE) 23:24:59 437.250
ESTCUBE 1 29 Aug 23:18:54 23:22:53 33° 68° (ENE) 23:26:55 437.505/2401.250
AUBIESAT-1 29 Aug 23:21:20 23:25:58 70° 68° (ENE) 23:30:33 437.475
M-CUBED/EXP-1 PRIME 29 Aug 23:28:58 23:33:41 83° 253° (WSW) 23:38:24 437.505
Cosmos 2499 29 Aug 23:36:35 23:43:31 55° 76° (ENE) 23:50:30 435.465 / 435.565
HUMSAT D 29 Aug 23:37:40 23:41:15 28° 264° (W) 23:44:50 437.325/437.525
UNISAT 6 29 Aug 23:43:03 23:47:20 62° 101° (E) 23:51:33 437.425
PRISM 29 Aug 23:49:22 23:51:42 15° 299° (WNW) 23:54:02 437.425
QB50P1 29 Aug 23:50:16 23:51:13 11° 88° (E) 23:52:10 145.935-145.965
CUSAT 1 29 Aug 23:51:01 23:53:59 46° 94° (E) 23:57:46 437.405
O/OREOS (USA 219) 29 Aug 23:57:37 00:02:15 79° 65° (ENE) 00:06:51 437.305
POPSAT HIP 1 29 Aug 23:59:27 00:01:36 14° 90° (E) 00:03:43 437.405
CUBEBUG 1 30 Aug 00:00:09 00:04:28 56° 72° (ENE) 00:08:50 437.445
VELOX 1 30 Aug 00:04:16 00:08:34 52° 72° (ENE) 00:12:55 145.980
GONETS M04 30 Aug 00:06:24 00:15:18 81° 264° (W) 00:24:08
SPROUT 30 Aug 00:07:24 00:11:06 29° 68° (ENE) 00:14:50 437.525
SO-50 30 Aug 00:10:31 00:15:23 75° 123° (ESE) 00:20:11 436.795
DX 1 30 Aug 00:13:41 00:17:51 45° 70° (ENE) 00:22:03 434.975-435.025
ANTELSAT 30 Aug 00:20:03 00:24:14 53° 288° (WNW) 00:28:22 437.575/2403.000
JAS-2 30 Aug 00:21:30 00:26:43 22° 91° (E) 00:32:16 435.910
TISAT 1 30 Aug 00:21:57 00:22:00 10° 58° (ENE) 00:22:04 437.305
DUCHIFAT 1 30 Aug 00:23:25 00:26:42 22° 94° (E) 00:29:57 145.980
QB50P2 30 Aug 00:29:13 00:32:58 30° 96° (E) 00:36:41 145.880/145.840
POLYITAN 1 30 Aug 00:31:43 00:35:28 30° 96° (E) 00:39:11 437.675
NANOSAT C BR1 30 Aug 00:38:01 00:41:52 33° 97° (E) 00:45:39 145.865
50 SAT 30 Aug 00:39:48 00:43:20 60° 260° (W) 00:46:54 437.505
UKube-1 30 Aug 00:49:24 00:53:44 84° 75° (ENE) 00:58:06 .
TIGRISAT 30 Aug 00:50:43 00:54:23 28° 293° (WNW) 00:58:00 435.000
AISAT 30 Aug 00:53:35 00:57:52 47° 261° (W) 01:02:13 437.250
ESTCUBE 1 30 Aug 00:55:55 00:59:44 27° 265° (W) 01:03:34 437.505/2401.250
AUBIESAT-1 30 Aug 00:58:14 01:00:48 15° 265° (W) 01:03:22 437.475
M-CUBED/EXP-1 PRIME 30 Aug 01:08:13 01:08:47 10° 268° (W) 01:09:22 437.505
BUGSAT 1 30 Aug 01:08:32 01:12:08 28° 96° (E) 01:15:41 437.445
DANDE 30 Aug 01:10:49 01:13:24 54° 284° (WNW) 01:16:22 436.750
UNISAT 6 30 Aug 01:21:14 01:23:33 14° 299° (WNW) 01:25:52 437.425
QB50P1 30 Aug 01:23:17 01:27:31 74° 284° (WNW) 01:31:41 145.935-145.965
RS-15 30 Aug 01:24:06 01:35:00 51° 111° (ESE) 01:46:27 29.354- 29.394
Cosmos 2499 30 Aug 01:30:26 01:36:11 28° 276° (W) 01:41:58 435.465 / 435.565
POPSAT HIP 1 30 Aug 01:33:36 01:37:46 58° 287° (WNW) 01:41:53 437.405
CUSAT 1 30 Aug 01:35:44 01:36:44 11° 303° (WNW) 01:37:47 437.405
CUBEBUG 1 30 Aug 01:38:30 01:41:07 15° 270° (W) 01:43:45 437.445
O/OREOS (USA 219) 30 Aug 01:39:23 01:40:58 12° 263° (W) 01:42:32 437.305
VELOX 1 30 Aug 01:42:27 01:45:20 17° 269° (W) 01:48:15 145.980
SPROUT 30 Aug 01:43:16 01:47:00 28° 264° (W) 01:50:46 437.525
DX 1 30 Aug 01:51:09 01:54:16 19° 267° (W) 01:57:23 434.975-435.025
SO-50 30 Aug 01:52:37 01:56:22 22° 323° (NW) 02:00:05 436.795
TISAT 1 30 Aug 01:52:41 01:56:55 86° 79° (E) 02:01:12 437.305
DUCHIFAT 1 30 Aug 01:58:39 02:02:29 35° 291° (WNW) 02:06:17 145.980
ITUPSAT 1 30 Aug 02:03:27 02:07:18 25° 64° (ENE) 02:11:09 437.325
QB50P2 30 Aug 02:05:09 02:08:40 26° 293° (WNW) 02:12:10 145.880/145.840
JAS-2 30 Aug 02:05:24 02:12:15 79° 286° (WNW) 02:19:50 435.910
GONETS M04 30 Aug 02:05:25 02:10:39 17° 285° (WNW) 02:15:52
POLYITAN 1 30 Aug 02:07:40 02:11:10 26° 294° (WNW) 02:14:38 437.675
NANOSAT C BR1 30 Aug 02:14:03 02:17:26 24° 294° (WNW) 02:20:47 145.865
SWISSCUBE 30 Aug 02:34:13 02:38:50 53° 71° (ENE) 02:43:27 437.505
PHONESAT 2.4 30 Aug 02:42:59 02:45:33 26° 168° (SSE) 02:48:07 2401.200-2431.200
BUGSAT 1 30 Aug 02:43:58 02:47:26 26° 293° (WNW) 02:50:52 437.445
MOZHAYETS 4 30 Aug 02:46:50 02:47:33 10° 57° (ENE) 02:48:16
BEESAT 30 Aug 02:50:56 02:55:39 69° 73° (ENE) 03:00:24 436.000
Gurwin Techsat 1B 30 Aug 02:51:03 02:55:41 30° 95° (E) 03:00:18 435.225
Oscar 19 30 Aug 02:59:54 03:05:09 74° 103° (ESE) 03:10:19 437.125/150
RS-15 30 Aug 03:35:53 03:47:24 59° 317° (NW) 03:59:32 29.354- 29.394
ITUPSAT 1 30 Aug 03:40:26 03:44:55 41° 262° (W) 03:49:26 437.325
Cosmos 2491 30 Aug 03:47:27 03:52:25 16° 54° (NE) 03:57:22 435.465 / 435.565
JAS-2 30 Aug 03:52:08 03:56:27 18° 304° (NW) 04:01:01 435.910
AO-7 30 Aug 03:54:43 04:00:51 22° 91° (E) 04:06:55 29.400- 29.500
KKS-1 30 Aug 03:55:41 03:59:49 37° 69° (ENE) 04:03:58 437.445
CUBESAT XI-V 30 Aug 04:13:08 04:14:20 11° 57° (ENE) 04:15:32 437.345
AO-85 30 Aug 04:13:25 04:14:26 11° 106° (ESE) 04:15:25 145.980
SWISSCUBE 30 Aug 04:13:38 04:16:56 18° 268° (W) 04:20:15 437.505
PHONESAT 2.4 30 Aug 04:18:47 04:21:32 32° 184° (S) 04:24:16 2401.200-2431.200
MOZHAYETS 4 30 Aug 04:19:23 04:23:56 80° 75° (ENE) 04:28:31
ITAMSAT 1 30 Aug 04:19:35 04:24:42 56° 101° (E) 04:29:47 435.822/435.867
STARS 30 Aug 04:24:38 04:28:43 37° 69° (ENE) 04:32:48 437.465
Gurwin Techsat 1B 30 Aug 04:30:48 04:35:43 39° 293° (WNW) 04:40:37 435.225
BEESAT 30 Aug 04:31:26 04:33:56 14° 270° (W) 04:36:26 436.000
Oscar 19 30 Aug 04:40:32 04:43:52 17° 301° (WNW) 04:47:11 437.125/150
YUBILEINY 30 Aug 05:06:15 05:10:45 15° 73° (ENE) 05:15:16 435.215
KKS-1 30 Aug 05:32:52 05:36:29 24° 266° (W) 05:40:06 437.445
Cosmos 2491 30 Aug 05:42:24 05:51:14 68° 78° (ENE) 06:00:01 435.465 / 435.565
AO-7 30 Aug 05:46:12 05:54:34 85° 291° (WNW) 06:02:51 29.400- 29.500
CUBESAT XI-V 30 Aug 05:46:19 05:50:56 83° 77° (ENE) 05:55:36 437.345
AO-85 30 Aug 05:48:53 05:54:09 72° 122° (ESE) 05:59:08 145.980
RS-15 30 Aug 05:52:55 06:03:14 31° 348° (NNW) 06:13:50 29.354- 29.394
PHONESAT 2.4 30 Aug 05:55:21 05:57:25 17° 201° (SSW) 05:59:28 2401.200-2431.200
ITAMSAT 1 30 Aug 05:59:54 06:03:46 22° 299° (WNW) 06:07:38 435.822/435.867
MOZHAYETS 4 30 Aug 06:00:20 06:01:41 11° 272° (W) 06:03:02
STARS 30 Aug 06:01:36 06:05:10 23° 266° (W) 06:08:44 437.465
BRITE-PL 30 Aug 06:29:49 06:34:56 33° 94° (E) 06:39:54 437.365/2234.400
STRAND 1 30 Aug 06:33:38 06:37:10 19° 60° (ENE) 06:40:42 437.568
NOAA 18 30 Aug 06:42:25 06:45:35 15° 89° (E) 06:48:44 137.9125
HORYU 2 30 Aug 06:42:54 06:47:20 83° 103° (ESE) 06:51:45 437.375
YUBILEINY 30 Aug 06:57:08 07:05:55 74° 94° (E) 07:14:43 435.215
SO-50 30 Aug 07:00:30 07:04:03 21° 36° (NE) 07:07:30 436.795
Cubesat XI-IV 30 Aug 07:07:54 07:12:31 29° 95° (E) 07:17:07 437.490
NOAA 15 30 Aug 07:11:11 07:16:10 39° 98° (E) 07:21:08 137.62
LilacSat-2 30 Aug 07:16:40 07:20:05 32° 97° (E) 07:23:28 437.200
CUTE-I 30 Aug 07:18:43 07:23:37 37° 97° (E) 07:28:30 437.470
DOVE 4 30 Aug 07:24:23 07:28:06 21° 90° (E) 07:31:40 437.250
Cosmos 2504 30 Aug 07:26:11 07:33:53 43° 88° (E) 07:41:06 435.465 / 435.565
CUBESAT XI-V 30 Aug 07:27:39 07:28:56 11° 273° (W) 07:30:13 437.345
GOMX 1 30 Aug 07:30:20 07:35:37 52° 98° (E) 07:40:37 467.674
AO-85 30 Aug 07:30:57 07:35:04 23° 321° (NW) 07:38:59 145.980
AO-7 30 Aug 07:40:11 07:46:14 23° 312° (NW) 07:52:16 29.400- 29.500
Cosmos 2491 30 Aug 07:40:12 07:47:21 29° 279° (W) 07:54:31 435.465 / 435.565
ISS 30 Aug 07:46:45 07:48:15 13° 132° (SE) 07:49:45 145.825
BRITE-PL 30 Aug 08:08:07 08:13:25 40° 292° (WNW) 08:18:36 437.365/2234.400
RS-15 30 Aug 08:09:23 08:20:26 36° 23° (NNE) 08:31:31 29.354- 29.394
STRAND 1 30 Aug 08:10:49 08:15:52 63° 258° (WSW) 08:20:57 437.568
NOAA 18 30 Aug 08:21:22 08:26:52 78° 287° (WNW) 08:32:18 137.9125
HORYU 2 30 Aug 08:21:30 08:23:15 12° 302° (WNW) 08:25:00 437.375
CUSAT 1 30 Aug 08:39:49 08:41:51 11° 58° (ENE) 08:43:59 437.405
SO-50 30 Aug 08:40:24 08:45:02 73° 236° (SW) 08:49:30 436.795
Cubesat XI-IV 30 Aug 08:47:45 08:52:41 40° 293° (WNW) 08:57:37 437.490
HO-68 30 Aug 08:48:27 08:54:58 36° 96° (E) 09:01:26 435.675
NOAA 15 30 Aug 08:51:12 08:55:49 31° 296° (WNW) 09:00:25 137.62
LilacSat-2 30 Aug 08:51:24 08:54:12 20° 293° (WNW) 08:56:59 437.200
SEEDS 30 Aug 08:52:56 08:56:14 22° 93° (E) 08:59:31 437.485
YUBILEINY 30 Aug 08:56:20 09:03:35 28° 296° (WNW) 09:10:54 435.215
CUTE-I 30 Aug 08:58:54 09:03:35 33° 295° (WNW) 09:08:16 437.470
DOVE 4 30 Aug 09:01:15 09:06:08 49° 289° (WNW) 09:10:42 437.250
PRISM 30 Aug 09:03:45 09:07:45 55° 72° (ENE) 09:11:48 437.425
GOMX 1 30 Aug 09:09:02 09:13:19 24° 297° (WNW) 09:17:25 467.674
UWE-3 30 Aug 09:14:32 09:16:19 12° 89° (E) 09:18:05 435.000/436.395/437.385
AAUSAT CUBESAT 2 30 Aug 09:16:06 09:19:19 21° 93° (E) 09:22:32 437.432
Cosmos 2504 30 Aug 09:19:27 09:27:15 43° 287° (WNW) 09:34:35 435.465 / 435.565
CANX-2 30 Aug 09:19:30 09:23:46 68° 102° (ESE) 09:28:00 2200.000
ISS 30 Aug 09:20:58 09:24:15 84° 150° (SSE) 09:27:32 145.825
CUBEBUG 2 30 Aug 09:21:34 09:24:54 22° 93° (E) 09:28:11 437.445
CINEMA 3 30 Aug 09:21:47 09:26:19 82° 103° (ESE) 09:30:37 145.822/145.860
CUTE 1.7 + AOD 2 30 Aug 09:25:03 09:29:18 68° 102° (ESE) 09:33:31 437.475
COMPASS 1 30 Aug 09:26:31 09:30:22 34° 97° (E) 09:34:12 437.405
BEESAT 2 30 Aug 09:26:39 09:29:02 16° 111° (ESE) 09:31:27 435.950
BEESAT 3 30 Aug 09:37:35 09:41:13 38° 118° (ESE) 09:44:53 437.485
AIST 1 30 Aug 09:44:26 09:48:44 64° 96° (E) 09:53:07
ANTELSAT 30 Aug 09:45:10 09:48:22 19° 64° (ENE) 09:51:33 437.575/2403.000
DANDE 30 Aug 10:01:05 10:04:44 17° 68° (ENE) 10:08:55 436.750
NOAA 18 30 Aug 10:04:08 10:06:38 13° 306° (NW) 10:09:07 137.9125
TIGRISAT 30 Aug 10:14:13 10:18:19 34° 69° (ENE) 10:22:21 435.000
CUSAT 1 30 Aug 10:18:31 10:24:58 56° 76° (ENE) 10:32:34 437.405
Oscar 11 30 Aug 10:22:37 10:26:46 44° 99° (E) 10:30:53 145.826/435.025
SEEDS 30 Aug 10:28:10 10:32:02 35° 290° (WNW) 10:35:53 437.485
DELFI C3 30 Aug 10:31:03 10:34:15 23° 94° (E) 10:37:27 145.870
FUNcube-1 30 Aug 10:33:59 10:38:03 54° 100° (E) 10:42:06 145.935
PRISM 30 Aug 10:41:17 10:43:25 14° 269° (W) 10:45:33 437.425
QB50P1 30 Aug 10:44:35 10:46:15 12° 60° (ENE) 10:47:55 145.935-145.965
